Voltar ao catálogo

STARLINK-37475

AtivoComunicaçõesSSO
NORAD 68839·PAYLOAD·🇺🇸 United States

Lançado Apr 26, 2026 de Vandenberg Space Force Base

Loading…

Próximas Passagens (próximas 24 horas)

TLE

AtualizadoSource: CelesTrak SupGP

Época: Sep 15, 2026, 03:37 UTC

1 68839C 26094A   26258.15118056 -.00041548  00000+0 -12897-2 0  2585
2 68839  97.2831 271.2834 0001606  98.4534 257.1132 15.33460261    12

Acompanhe STARLINK-37475 em tempo real com AllMySat

Download on the App Store